Location: Unspecified
(0.0000°N, 0.0000°E)
Time: 12:12:06
(UTC+00:00)

Transit 4B - Visible Passes

Search period start: 09 December 2025 00:00
Search period end: 19 December 2025 00:00
Orbit: 947 x 1097 km, 32.4° (Epoch: 09 December)

Date Brightness Start Highest point End Pass type
(mag) Time Alt. Az. Time Alt. Az. Time Alt. Az.
10 Dec 10.5 19:51:33 10° NNW 19:52:46 14° NNW 19:52:46 14° NNW visible
11 Dec 10.2 18:41:03 10° N 18:43:58 13° NNE 18:45:31 12° NE visible
11 Dec 10.7 20:30:16 10° NW 20:31:07 14° NW 20:31:07 14° NW visible
12 Dec 9.4 19:18:30 10° NNW 19:24:05 28° NNE 19:24:05 28° NNE visible
13 Dec 8.8 19:57:29 10° NW 20:02:52 53° NNW 20:02:52 53° NNW visible
14 Dec 9.2 18:45:31 10° NNW 18:51:43 35° NNE 18:56:16 16° E visible
14 Dec 9.6 20:37:26 10° WNW 20:41:56 40° W 20:41:56 40° W visible
15 Dec 8.4 19:24:44 10° NW 19:31:39 78° NE 19:35:33 27° ESE visible
15 Dec 10.7 21:18:39 10° W 21:21:14 19° WSW 21:21:14 19° WSW visible
16 Dec 11.2 04:59:10 10° S 05:02:07 13° SSE 05:05:05 10° ESE visible
16 Dec 9.1 18:12:35 10° NW 18:19:09 42° NNE 18:25:28 10° ESE visible
16 Dec 9.4 20:04:56 10° WNW 20:11:29 47° SW 20:15:04 25° SSE visible
17 Dec 8.6 18:52:01 10° NW 18:59:03 88° SW 19:05:48 10° SE visible
17 Dec 10.6 20:46:31 10° W 20:51:28 21° SSW 20:54:40 15° S visible
18 Dec 11.0 04:25:54 10° S 04:29:39 16° SSE 04:33:26 10° ESE visible
18 Dec 9.8 19:32:30 10° WNW 19:38:55 39° SW 19:45:06 10° SSE visible
